Station 41025 (LLNR 637) - Diamond Shoals, NC Image indicating link to RSS feed of recent meteorological observations for station 41025


Conditions at 41025 as of
(2:10 pm EDT)
1810 GMT on 06/22/2024:
     

Click on the graph icon in the table below to see a time series plot of the last five days of that observation.

5-day plot - Wind Speed Wind Speed (WSPD):0.0 m/s
5-day plot - Wind Gust Wind Gust (GST):0.0 m/s
5-day plot - Atmospheric Pressure Atmospheric Pressure (PRES):1019.4 mb
5-day plot - Water Temperature Water Temperature (WTMP): 28.7 °C
5-day plot - Wind Speed at 10 Meters Wind Speed at 10 meters (WSPD10M): 0 m/s
5-day plot - Wind Speed at 20 Meters Wind Speed at 20 meters (WSPD20M): 0 m/s
5-day plot -  Wind Speed, Wind Gust and Atmospheric Pressure Combined plot of Wind Speed, Gust, and Air Pressure
Supplemental Measurements
Highest 1-minute Wind Speed
Time (EDT)5-day plot - 1-Minute Wind Speed WSPD 5-day plot - 1-Minute Wind Direction WDIR
2:00 pm 0 m/s MM ( 0 deg true )
Previous observations
TIME
(EDT)
5-day plot - Wind Direction
WDIR
 
5-day plot - Wind Speed
WSPD
m/s
5-day plot - Wind Gust
GST
m/s
5-day plot - Wave Height
WVHT
m
5-day plot - Dominant Wave Period
DPD
sec
5-day plot - Average Wave Period
APD
sec
5-day plot - Mean Wave Direction
MWD
 
5-day plot - Atmospheric Pressure
PRES
mb
5-day plot - Pressure Tendency
PTDY
mb
5-day plot - Air Temperature
ATMP
°C
5-day plot - Water Temperature
WTMP
°C
5-day plot - Dew Point
DEWP
°C
5-day plot - Salinity
SAL
psu
5-day plot - Visibility
VIS
km
5-day plot - Tide (above MLLW)
TIDE
m
2024-06-22 02:00 pm- 0.0 0.0----1019.7 -0.8- 28.7----
2024-06-22 01:50 pm- 0.0 0.0 0.9 85.7ESE1019.9-- 28.6----
2024-06-22 01:40 pm- 0.0 0.0----1019.9-- 28.5----
2024-06-22 01:30 pm- 0.0 0.0----1019.9-- 28.5----
2024-06-22 01:20 pm- 0.0 0.0 0.9 75.6 E1020.0-------
2024-06-22 01:10 pm- 0.0 0.0 0.9-5.6 E1020.1-- 28.5----
2024-06-22 01:00 pm- 0.0 0.0----1020.1 -0.7- 28.5----
2024-06-22 12:50 pm- 0.0 0.0 1.1 85.7 E1020.2-- 28.5----
2024-06-22 12:40 pm- 0.0 0.0----1020.3-- 28.5----
2024-06-22 12:30 pm- 0.0 0.0----1020.5-- 28.4----
2024-06-22 12:20 pm- 0.0 0.0 1.0 85.7ESE1020.5-- 28.5----
2024-06-22 12:10 pm- 0.0 0.0 1.0-5.7ESE1020.5-- 28.4----
2024-06-22 12:00 pm- 0.0 0.0----1020.6 +0.0- 28.4----
2024-06-22 11:50 am- 0.0 0.0 1.0 85.6ESE1020.5-- 28.4----
2024-06-22 11:40 am- 0.0 1.0----1020.6-- 28.4----
2024-06-22 11:30 am- 0.0 1.0----1020.6-- 28.5----
2024-06-22 11:20 am- 0.0 1.0 1.0 75.7 SE1020.6-- 28.4----
2024-06-22 11:10 am- 0.0 1.0 1.0-5.7 SE1020.5-- 28.4----
2024-06-22 11:00 am- 0.0 1.0----1020.5 +0.0- 28.5----
2024-06-22 10:50 amWNW 1.0 2.0 0.9 75.4ESE1020.6-- 28.4----
2024-06-22 10:40 am- 0.0 2.0----1020.6-- 28.5----
2024-06-22 10:30 am- 0.0 1.0----1020.7-- 28.5----
2024-06-22 10:20 am NW 1.0 2.0 1.0 75.7ESE1020.7-- 28.5----
2024-06-22 10:10 amNNW 1.0 2.0 1.0-5.7ESE1020.8-- 28.5----
2024-06-22 10:00 am NW 1.0 2.0----1020.8 +0.0- 28.4----
2024-06-22 09:50 am NW 1.0 2.0 0.9 75.3ESE1020.8-- 28.4----
2024-06-22 09:40 amWNW 1.0 3.0----1020.8-- 28.5----
2024-06-22 09:30 am NW 1.0 3.0----1020.9-- 28.5----
2024-06-22 09:20 am NW 2.0 3.0 1.0 85.4ESE1020.9-- 28.5----
2024-06-22 09:10 am NW 2.0 3.0 1.0-5.4ESE1020.8-- 28.4----
2024-06-22 09:00 am NW 2.0 3.0----1020.8 +0.0- 28.4----
2024-06-22 08:50 am NW 2.0 3.0 1.0 85.6ESE1020.8-- 28.4----
2024-06-22 08:40 am NW 2.0 3.0----1020.8-- 28.4----
2024-06-22 08:30 am NW 1.0 3.0----1020.7-- 28.4----
2024-06-22 08:20 am NW 1.0 3.0 1.0 85.6ESE1020.7-- 28.5----
2024-06-22 08:10 am NW 1.0 3.0----1020.6-- 28.5----
2024-06-22 08:00 am NW 1.0 2.0----1020.7 +0.0- 28.5----
2024-06-22 07:50 amWNW 1.0 2.0 1.0 85.5ESE1020.7-- 28.5----
2024-06-22 07:40 am NW 2.0 3.0----1020.7-- 28.4----
2024-06-22 07:30 am NW 2.0 3.0----1020.6-- 28.4----
2024-06-22 07:20 am NW 2.0 4.0 1.0 75.8ESE1020.5-- 28.4----
2024-06-22 07:10 amWNW 2.0 4.0 1.0-5.8ESE1020.6-- 28.4----
2024-06-22 07:00 amWNW 2.0 4.0----1020.6 +0.0- 28.4----
2024-06-22 06:50 amWNW 2.0 3.0 1.1 85.8ESE1020.6-- 28.4----
2024-06-22 06:40 amWNW 2.0 4.0----1020.7-- 28.4----
2024-06-22 06:30 amWNW 3.0 5.0----1020.6-- 28.4----
2024-06-22 06:20 amWNW 3.0 5.0 1.0 75.7ESE1020.6-- 28.3----
2024-06-22 06:10 amWNW 3.0 5.0 1.0-5.7ESE1020.6-- 28.3----
2024-06-22 06:00 amWNW 3.0 4.0----1020.7 -0.3- 28.3----
2024-06-22 05:50 amWNW 3.0 4.0 1.1 85.6 SE1020.6-- 28.3----
2024-06-22 05:40 amWNW 3.0 4.0----1020.5-- 28.3----
2024-06-22 05:30 am W 2.0 4.0----1020.7-- 28.2----
2024-06-22 05:20 am W 3.0 5.0 1.1 85.6ESE1020.7-- 28.2----
2024-06-22 05:10 am W 4.0 5.0 1.1-5.6ESE1020.6-- 28.1----
2024-06-22 05:00 amWNW 5.0 7.0----1020.6 -0.7- 28.1----
2024-06-22 04:50 amWNW 5.0 6.0 1.1 85.2ESE1020.6-- 28.1----
2024-06-22 04:40 am W 3.0 5.0----1020.6-- 28.1----
2024-06-22 04:30 am W 3.0 4.0----1020.5-- 28.1----
2024-06-22 04:20 amWSW 3.0 5.0 1.1 85.2ESE1020.6-- 28.0----
2024-06-22 04:10 amWSW 4.0 5.0 1.1-5.2ESE1020.6-- 28.0----
2024-06-22 04:00 amSSW 4.0 5.0----1020.6 -1.1- 28.0----
2024-06-22 03:50 am S 4.0 5.0 1.0 85.0ESE1020.6-- 28.0----
2024-06-22 03:40 amSSW 4.0 5.0----1020.6-- 27.9----
2024-06-22 03:30 am S 4.0 5.0----1020.7-- 27.9----
2024-06-22 03:20 am S 4.0 6.0 1.1 85.0ESE1020.9-- 27.9----
2024-06-22 03:10 am S 5.0 6.0----1020.9-- 27.9----
2024-06-22 03:00 am S 5.0 6.0----1021.0 -1.0- 27.9----
2024-06-22 02:50 am S 5.0 6.0 1.1 85.2ESE1021.0-------
2024-06-22 02:40 amSSW 5.0 5.0 1.1-5.2ESE1021.1-- 28.0----
2024-06-22 02:30 amSSW 5.0 6.0----1021.2-- 28.0----
2024-06-22 02:20 am S 6.0 7.0 1.1 85.1ESE1021.2-- 28.0----
2024-06-22 02:10 am S 5.0 7.0----1021.3-- 28.0----
2024-06-22 02:00 am S 5.0 7.0----1021.3 -0.6- 28.0----
2024-06-22 01:50 am S 5.0 7.0 1.1 85.0ESE1021.4-- 28.0----
2024-06-22 01:40 am S 4.0 6.0----1021.5-- 28.0----
2024-06-22 01:30 am S 5.0 6.0----1021.5-- 28.0----
2024-06-22 01:20 am S 5.0 7.0 1.0 84.7ESE1021.6-- 28.0----
2024-06-22 01:10 am S 5.0 6.0 1.0-4.7ESE1021.6-- 28.0----
2024-06-22 01:00 am S 6.0 7.0----1021.7 +0.0- 28.0----
2024-06-22 12:50 am S 6.0 7.0 1.1 85.0 SE1021.7-- 28.0----
2024-06-22 12:40 am S 5.0 6.0----1021.7-- 28.0----
2024-06-22 12:30 am S 5.0 6.0----1021.8-- 28.0----
2024-06-22 12:20 am S 6.0 7.0 1.1 84.8ESE1021.9-- 28.1----
2024-06-22 12:10 am S 6.0 7.0----1021.9-- 28.1----
2024-06-22 12:00 am S 6.0 7.0----1022.0 +0.6- 28.1----
2024-06-21 11:50 pm S 6.0 8.0 1.0 94.7ESE1021.9-- 28.1----
2024-06-21 11:40 pm S 6.0 8.0----1021.9-- 28.1----
2024-06-21 11:30 pm S 6.0 8.0----1021.8-- 28.1----
2024-06-21 11:20 pm S 6.0 8.0 1.0 84.8ESE1021.8-- 28.1----
2024-06-21 11:10 pm S 6.0 8.0 1.0-4.8ESE1021.7-- 28.1----
2024-06-21 11:00 pm S 6.0 7.0----1021.9 +0.5- 28.2----
2024-06-21 10:50 pm S 6.0 7.0 1.0 85.1ESE1021.8-- 28.2----
2024-06-21 10:40 pmSSE 5.0 7.0----1021.7-- 28.2----
2024-06-21 10:30 pmSSE 6.0 7.0----1021.7-- 28.2----
2024-06-21 10:20 pm S 6.0 8.0 1.0 84.8ESE1021.7-- 28.3----
2024-06-21 10:10 pmSSE 6.0 8.0----1021.7-- 28.3----
2024-06-21 10:00 pmSSE 6.0 7.0----1021.7 +0.0- 28.3----
2024-06-21 09:50 pmSSE 6.0 7.0 1.0 84.8ESE1021.7-- 28.3----
2024-06-21 09:40 pmSSE 6.0 8.0----1021.6-- 28.3----
2024-06-21 09:30 pm S 5.0 7.0----1021.5-- 28.3----
2024-06-21 09:20 pmSSE 5.0 7.0 1.0 84.9ESE1021.5-- 28.4----
2024-06-21 09:10 pmSSE 6.0 7.0 1.0-4.9ESE1021.5-- 28.4----
2024-06-21 09:00 pmSSE 6.0 7.0----1021.4 +0.0- 28.4----
2024-06-21 08:50 pmSSE 5.0 6.0 1.1 85.2ESE1021.4-- 28.4----
2024-06-21 08:40 pm S 6.0 7.0----1021.5-- 28.4----
2024-06-21 08:30 pmSSE 6.0 7.0----1021.5-- 28.4----
2024-06-21 08:20 pmSSE 6.0 7.0 1.1 85.1ESE1021.4-- 28.4----
2024-06-21 08:10 pmSSE 6.0 7.0 1.1-5.1ESE1021.5-- 28.5----
2024-06-21 08:00 pmSSE 6.0 7.0----1021.4 -0.5- 28.5----
2024-06-21 07:50 pmSSE 5.0 7.0 1.1 85.2ESE1021.5-- 28.5----
2024-06-21 07:40 pm SE 5.0 6.0----1021.5-- 28.5----
2024-06-21 07:10 pm SE 5.0 6.0 1.0-5.0ESE1021.6-- 28.5----
2024-06-21 07:00 pmESE 5.0 6.0----1021.6 -0.8- 28.5----
2024-06-21 06:50 pmESE 5.0 7.0 1.2 85.1ESE1021.5-- 28.6----
2024-06-21 06:40 pmESE 6.0 7.0----1021.5-- 28.6----
2024-06-21 06:30 pmESE 6.0 7.0----1021.5-------
2024-06-21 06:20 pmESE 6.0 7.0 1.0 85.1ESE1021.5-- 28.6----
2024-06-21 06:10 pmESE 6.0 7.0 1.0-5.1ESE1021.5-- 28.6----
2024-06-21 06:00 pmESE 6.0 7.0----1021.6 -1.4- 28.6----
2024-06-21 05:50 pm SE 5.0 6.0 1.1 85.4ESE1021.6-- 28.6----
2024-06-21 05:40 pmSSE 5.0 6.0----1021.6-- 28.6----
2024-06-21 05:30 pmSSE 5.0 7.0----1021.7-- 28.6----
2024-06-21 05:20 pm SE 4.0 6.0 1.1 85.4ESE1021.7-- 28.6----
2024-06-21 05:10 pm SE 4.0 6.0 1.1-5.4ESE1021.8-- 28.6----
2024-06-21 05:00 pm SE 5.0 6.0----1021.9 -1.6- 28.6----
2024-06-21 04:50 pm SE 4.0 6.0 1.1 85.3ESE1021.9-- 28.7----
2024-06-21 04:40 pm SE 5.0 6.0----1022.0-- 28.7----
2024-06-21 04:30 pmESE 4.0 6.0----1022.1-- 28.7----
2024-06-21 04:20 pm SE 4.0 6.0 1.0 85.3ESE1022.2-- 28.7----
2024-06-21 04:10 pm SE 4.0 6.0 1.0-5.3ESE1022.3-- 28.7----
2024-06-21 04:00 pm SE 5.0 6.0----1022.4 -1.7- 28.7----
2024-06-21 03:50 pm SE 4.0 6.0 1.0 85.3ESE1022.5-- 28.7----
2024-06-21 03:40 pm SE 5.0 6.0 1.0-5.3ESE1022.7-- 28.7----
2024-06-21 03:30 pm SE 5.0 6.0----1022.7-- 28.7----
2024-06-21 03:20 pm SE 5.0 7.0 1.0 85.5ESE1022.8-- 28.7----
2024-06-21 03:10 pm SE 5.0 7.0 1.0-5.5ESE1022.9-- 28.8----
2024-06-21 03:00 pmESE 4.0 6.0----1023.0 -1.2- 28.8----
2024-06-21 02:50 pmESE 4.0 5.0 0.9 85.2ESE1023.0-- 28.8----
2024-06-21 02:40 pmESE 4.0 6.0----1023.1-- 28.8----
2024-06-21 02:30 pm SE 5.0 7.0----1023.2-- 28.8----
2024-06-21 02:20 pm SE 5.0 7.0 1.1 85.1 E1023.3-- 28.7----
2024-06-21 02:10 pm SE 6.0 7.0 1.1-5.1 E1023.4-- 28.7----
2024-06-21 02:00 pm SE 5.0 7.0----1023.5 -0.4- 28.8----
2024-06-21 01:50 pm SE 5.0 7.0 1.0 85.0ESE1023.7-- 28.7----

Detailed Wave Summary
for 41025 as of (1:40 pm EDT)
1740 GMT on 06/22/2024:

These wave data are displayed in rounded times.

     

Click on the graph icon in the table below to see a time series plot of the last five days of that observation.

5-day plot - Significant Wave Height Significant Wave Height (WVHT): 0.9 m
5-day plot - Average Wave Period Average Wave Period (APD): 5.7 sec
Previous observations
TIME
(EDT)
5-day plot - Wave Height
WVHT
m
5-day plot - Swell Height
SwH
m
5-day plot - Swell Period
SwP
sec
5-day plot - Swell Direction
SwD
 
5-day plot - Wind Wave Height
WWH
m
5-day plot - Wind Wave Period
WWP
sec
5-day plot - Wind Wave Direction
WWD
 
5-day plot - Wave Steepness
STEEPNESS
 
5-day plot - Average Wave Period
APD
sec
2024-06-22 01:10 pm 0.9------ AVERAGE 5.6
2024-06-22 12:40 pm 1.1------ AVERAGE 5.7
2024-06-22 12:10 pm 1.0------ N/A 5.7
2024-06-22 11:40 am 1.0------ N/A 5.6
2024-06-22 11:10 am 1.0------ AVERAGE 5.7
2024-06-22 10:40 am 0.9------ AVERAGE 5.4
2024-06-22 10:10 am 1.0------ AVERAGE 5.7
2024-06-22 09:40 am 0.9------ AVERAGE 5.3
2024-06-22 09:10 am 1.0------ N/A 5.4
2024-06-22 08:40 am 1.0------ AVERAGE 5.6
2024-06-22 08:10 am 1.0------ AVERAGE 5.6
2024-06-22 07:40 am 1.0------ AVERAGE 5.5
2024-06-22 07:10 am 1.0------ AVERAGE 5.8
2024-06-22 06:40 am 1.1------ AVERAGE 5.8
2024-06-22 06:10 am 1.0------ AVERAGE 5.7
2024-06-22 05:40 am 1.1------ AVERAGE 5.6
2024-06-22 05:10 am 1.1------ AVERAGE 5.6
2024-06-22 04:40 am 1.1------ AVERAGE 5.2
2024-06-22 04:10 am 1.1------ AVERAGE 5.2
2024-06-22 03:40 am 1.0------ N/A 5.0
2024-06-22 03:10 am 1.1------ N/A 5.0
2024-06-22 02:40 am 1.1------ AVERAGE 5.2
2024-06-22 02:10 am 1.1------ AVERAGE 5.1
2024-06-22 01:40 am 1.1------ AVERAGE 5.0
2024-06-22 01:10 am 1.0------ AVERAGE 4.7
2024-06-22 12:40 am 1.1------ N/A 5.0
2024-06-22 12:10 am 1.1------ N/A 4.8
2024-06-21 11:40 pm 1.0------ N/A 4.7
2024-06-21 11:10 pm 1.0------ AVERAGE 4.8
2024-06-21 10:40 pm 1.0------ N/A 5.1
2024-06-21 10:10 pm 1.0------ N/A 4.8
2024-06-21 09:40 pm 1.0------ N/A 4.8
2024-06-21 09:10 pm 1.0------ N/A 4.9
2024-06-21 08:40 pm 1.1------ AVERAGE 5.2
2024-06-21 08:10 pm 1.1------ AVERAGE 5.1
2024-06-21 07:40 pm 1.1------ N/A 5.2
2024-06-21 07:10 pm 1.0------ AVERAGE 5.0
2024-06-21 06:40 pm 1.2------ AVERAGE 5.1
2024-06-21 06:10 pm 1.0------ AVERAGE 5.1
2024-06-21 05:40 pm 1.1------ AVERAGE 5.4
2024-06-21 05:10 pm 1.1------ AVERAGE 5.4
2024-06-21 04:40 pm 1.1------ AVERAGE 5.3
2024-06-21 04:10 pm 1.0------ AVERAGE 5.3
2024-06-21 03:40 pm 1.0------ N/A 5.3
2024-06-21 03:10 pm 1.0------ N/A 5.5
2024-06-21 02:40 pm 0.9------ N/A 5.2
2024-06-21 02:10 pm 1.1------ N/A 5.1

Plot of wave energy versus frequency (and period)